Change the Weather History Date:

Friday, November 9, 2012

  Actual Average (KSHV) Record (KSHV)
Temperature  
Mean Temperature 64 °F 59 °F  
Max Temperature 75 °F 70 °F 85 °F (1994)
Min Temperature 52 °F 47 °F 23 °F (1991)
Degree Days  
Heating Degree Days 2 8  
Month to date heating degree days 58  
Since 1 July heating degree days 144  
Cooling Degree Days 0 1  
Month to date cooling degree days 13  
Year to date cooling degree days 2462  
Growing Degree Days 14 (Base 50)    
Moisture  
Dew Point 50 °F    
Average Humidity 67    
Maximum Humidity 90    
Minimum Humidity 40    
Precipitation  
Precipitation 0.00 in 0.14 in 3.28 in (1990)
Month to date precipitation 1.40  
Year to date precipitation 43.51  
Snow  
Snow 0.00 in - - ()
Month to date snowfall  
Since 1 July snowfall  
Since 1 September snowfall  
Snow Depth -    
Sea Level Pressure  
Sea Level Pressure 30.11 in    
Wind  
Wind Speed 8 mph (SSE)    
Max Wind Speed 13 mph    
Max Gust Speed 21 mph    
Visibility 10 miles    
Events      
T = Trace of Precipitation, MM = Missing Value Source: NWS Daily Summary

Daily Weather History Graph

Daily Weather History Graph

Search for Another Location

Airport or City:

Trip Planner

Search our weather history database for the weather conditions in past years. The results will help you decide how hot, cold, wet, or windy it might be!

Date:

Astronomy

Nov. 09, 2012 Rise Set
Actual Time 6:39 AM CST 5:17 PM CST
Civil Twilight 6:13 AM CST 5:43 PM CST
Nautical Twilight 5:44 AM CST 6:12 PM CST
Astronomical Twilight 5:15 AM CST 6:41 PM CST
Moon 1:54 AM CST (11/9) 2:17 PM CST (11/9)
Length of Visible Light 11h 29m
Length of Day
10h 37m
Waning Crescent, 23% of the Moon is Illuminated
Nov 9
Waning Crescent
Nov 13
New
Nov 20
First Quarter
Nov 28
Full
Dec 6
Last Quarter

Hourly Weather History & Observations

Time (CST) Temp. Dew Point Humidity Pressure Visibility Wind Dir Wind Speed Gust Speed Precip Events Conditions
12:53 AM 54.0 °F 46.0 °F 75% 30.12 in 10.0 mi SSE 6.9 mph - N/A   Clear
1:53 AM 52.0 °F 46.0 °F 80% 30.12 in 10.0 mi SSE 8.1 mph - N/A   Clear
2:53 AM 52.0 °F 46.9 °F 83% 30.12 in 10.0 mi SE 6.9 mph - N/A   Clear
3:53 AM 52.0 °F 46.9 °F 83% 30.12 in 10.0 mi SSE 5.8 mph - N/A   Unknown
4:53 AM 52.0 °F 48.0 °F 86% 30.14 in 10.0 mi SSE 5.8 mph - N/A   Clear
5:53 AM 52.0 °F 46.9 °F 83% 30.14 in 10.0 mi SE 8.1 mph - N/A   Clear
6:53 AM 52.0 °F 46.9 °F 83% 30.16 in 10.0 mi SSE 8.1 mph - N/A   Clear
7:53 AM 54.0 °F 48.0 °F 80% 30.17 in 10.0 mi SSE 9.2 mph - N/A   Clear
8:53 AM 59.0 °F 50.0 °F 72% 30.17 in 10.0 mi SSE 11.5 mph - N/A   Clear
9:53 AM 64.0 °F 53.1 °F 67% 30.17 in 10.0 mi SSE 9.2 mph - N/A   Clear
10:53 AM 66.0 °F 53.1 °F 63% 30.16 in 10.0 mi SE 9.2 mph - N/A   Clear
11:53 AM 72.0 °F 55.9 °F 57% 30.13 in 10.0 mi SSE 11.5 mph - N/A   Clear
12:53 PM 73.9 °F 53.1 °F 48% 30.09 in 10.0 mi South 11.5 mph - N/A   Clear
1:53 PM 75.9 °F 50.0 °F 40% 30.07 in 10.0 mi South 12.7 mph 20.7 mph N/A   Clear
2:53 PM 75.9 °F 53.1 °F 45% 30.05 in 10.0 mi SSE 12.7 mph - N/A   Clear
3:53 PM 75.9 °F 50.0 °F 40% 30.05 in 10.0 mi SSE 12.7 mph - N/A   Clear
4:53 PM 73.0 °F 50.0 °F 44% 30.05 in 10.0 mi South 8.1 mph - N/A   Clear
5:53 PM 69.1 °F 51.1 °F 53% 30.06 in 10.0 mi SE 4.6 mph - N/A   Clear
6:53 PM 63.0 °F 50.0 °F 63% 30.06 in 10.0 mi SE 5.8 mph - N/A   Clear
7:53 PM 63.0 °F 51.1 °F 65% 30.07 in 10.0 mi SE 6.9 mph - N/A   Clear
8:53 PM 63.0 °F 51.1 °F 65% 30.09 in 10.0 mi SSE 9.2 mph - N/A   Clear
9:53 PM 62.1 °F 53.1 °F 72% 30.10 in 10.0 mi SSE 10.4 mph - N/A   Clear
10:53 PM 60.1 °F 55.0 °F 83% 30.11 in 10.0 mi SSE 8.1 mph - N/A   Clear
11:53 PM 59.0 °F 55.9 °F 90% 30.11 in 10.0 mi SSE 5.8 mph - N/A   Clear